Regional Weather Roundup
Issued by NWS Goodland, KS

Home | Current Version | Previous Version | Graphics & Text | Print | Product List | Glossary On
Versions: 1 2 3 4 5 6 7 8 9 10 11 12 13 14 15 16 17 18 19 20 21 22 23 24 25 26 27 28 29 30 31 32 33 34 35 36 37 38 39 40 41 42 43 44 45 46 47 48 49 50
000
ASUS43 KGLD 290308
RWRGLD

GOODLAND FORECAST AREA HOURLY WEATHER ROUNDUP
NATIONAL WEATHER SERVICE GOODLAND KS
900 PM MDT WED JUN 28 2017

...OFFICIAL OBSERVATIONS...

CITY           SKY/WX    TMP DP  RH WIND       PRES   REMARKS
GOODLAND KS    CLOUDY    72  60  66 SE6       29.80R
HILL CITY KS   PTCLDY    82  59  45 NE14      29.71S
IMPERIAL NEB   CLOUDY    73  50  44 SE10      29.75F
MCCOOK NEB     MOCLDY    79  57  46 E7        29.76R
AKRON CO       LGT RAIN  68  51  54 S7        29.86R
BURLINGTON CO  CLEAR     73  53  49 E9        29.83R
LIMON CO       CLOUDY    66  55  67 NE5       29.90F
$$

...UNOFFICIAL OBSERVATIONS...

CITY           SKY/WX    TMP DP  RH WIND       PRES   REMARKS
LENORA KS        N/A     79  32  18 MISG        N/A
NORTON KS      CLEAR     79  48  34 NE7       29.73R
SHARON SPRINGS   N/A     75  59  58 NE6         N/A
TRENTON NEB      N/A     77  32  19 E8          N/A
KIT CARSON CO    N/A     76  50  39 MISG        N/A
YUMA CO        RAIN      68  46  45 S20G26    29.86R
$$



USA.gov is the U.S. government's official web portal to all federal, state and local government web resources and services.